KSHRKCOD

Guest
Details From KSHR - Sheridan Co
To KCOD - Yellowstone Rgnl
Flight Number -
Tags Generated
Created
Modified
Stats Distance 89 nm / 165 km
Max Altitude 0 ft / 0 m
Waypoints 2
Social Downloads 1
Likes 0
Share VATSIM

Download

Looking for another format? Having issues loading an existing format? Contact us
Advertisement - Login to hide

Notes

Generated

Route

KSHR KCOD

ID Type Via Altitude Latitude Longitude Leg Dist Tot Dist Heading (true) Name
O KSHR APT - 0 ft / 0 m 44.77088˚ -106.98754˚ - 0 nm - -
O KCOD APT - 0 ft / 0 m 44.51326˚ -109.03635˚ 88 nm 88 nm 261° / 259° -

Altitude Profile

Advertisement - Login to hide

KSHR

Details ICAO KSHR (SHR)
Name SHERIDAN CO
Region United States
Timezone America/Denver (UTC-6.0)
Stats Elevation 4,021 ft / 1,226 m (AMSL)
Location 44.770493° -106.977484°
Runways 3
Magnetic Variation 9.706° E

METAR

KSHR 230653Z AUTO 34005KT 10SM BKN100 OVC110 12/12 A2994 RMK AO2 RAE06 TSB0554E09 SLP115 P0000 T01220117 402330067

Decode

TAF

KSHR 230535Z 2306/2406 16011KT P6SM -TSRA OVC050CB FM230700 VRB03KT 6SM -SHRA OVC050 FM231600 VRB06KT P6SM SCT020 FM232000 21014G23KT P6SM SCT200

Decode

Departure Runways

ID Width Length Bearing (true) Bearing (mag) Surface Threshold Offset Overrun Length
05 75 ft / 23 m 5,022 ft / 1,531 m 67.89° 58.18° Asphalt 0 ft / 0 m 0 ft / 0 m
13 151 ft / 46 m 2,686 ft / 819 m 140.87° 131.16° Asphalt 0 ft / 0 m 0 ft / 0 m
14 98 ft / 30 m 8,298 ft / 2,529 m 156.40° 146.69° Asphalt 0 ft / 0 m 0 ft / 0 m
23 75 ft / 23 m 5,022 ft / 1,531 m 247.91° 238.20° Asphalt 0 ft / 0 m 0 ft / 0 m
31 151 ft / 46 m 2,686 ft / 819 m 320.88° 311.17° Asphalt 0 ft / 0 m 0 ft / 0 m
32 98 ft / 30 m 8,298 ft / 2,529 m 336.40° 326.69° Asphalt 0 ft / 0 m 0 ft / 0 m

KCOD

Details ICAO KCOD (COD)
Name Yellowstone Rgnl
Region United States
Timezone America/Denver (UTC-6.0)
Stats Elevation 5,102 ft / 1,555 m (AMSL)
Location 44.520187° -109.023806°
Runways 1
Magnetic Variation 10.707° E

METAR

KCOD 230720Z AUTO 01004KT 10SM -RA FEW008 OVC028 11/09 A3003 RMK AO2 P0001

Decode

TAF

KCOD 230528Z 2306/2406 23011KT P6SM -SHRA SCT020 OVC035 FM230900 27006KT P6SM -SHRA BKN015 OVC025 FM231600 VRB07KT 5SM TSRA SCT030CB OVC080 FM240200 25006KT P6SM VCSH SCT025 OVC080 AMD LTD TO CLD VIS AND WIND

Decode

Destination Runways

ID Width Length Bearing (true) Bearing (mag) Surface Threshold Offset Overrun Length
04 98 ft / 30 m 8,264 ft / 2,519 m 52.19° 41.48° Asphalt 689 ft / 210 m 236 ft / 72 m
22 98 ft / 30 m 8,264 ft / 2,519 m 232.21° 221.50° Asphalt 397 ft / 121 m 203 ft / 62 m